Погода в Татищево

Россия / Саратовская область     51°40′14″N   45°35′41″E
В апреле 2022 года жителям России запретили посещать сайт meteo.paraplan.net по решению Генеральной прокуратуры. Аудитория сайта уменьшилась в 10 раз. Владельцы сайта не видят смысла в поддержке погодного сервера в таких условиях. Сайт будет закрыт в октябре.
темп.,
°C
ветер,
м/с
пор.,
м/с
влажн.,
%
обл.,
%
осадки,
мм/ч
давл.,
гПа
погр.,
м
30 сентября, пт
пт3001:00+12с2389100 0.0 101665
04:00+11с2288100 0.0 101816
07:00+11св118894 0.0 101911
10:00+15в227767 0.0 1020352
13:00+17юв2165100 0.0 1020855
16:00+18юв1259100 0.0 10201060
19:00+15вюв3375100 0.0 102254
22:00+14юв2280100 0.0 102230
1 октября, сб
сб101:00+12вюв22875 0.0 102229
04:00+12юв229153 0.0 102217
07:00+13юв228779 0.0 102244
10:00+16юв347379 0.0 1022350
13:00+20ю4558100 0.0 10211073
16:00+20ююв4654100 0.0 10201287
19:00+17юв3672100 0.1 1019138
22:00+15ю38753 0.1 1018133
2 октября, вс
вс201:00+14ююв41082100 0.4 1017178
04:00+14ю41281100 0.8 1016282
07:00+15ю5108552 0.7 1015239
10:00+18ююз597175 0.7 1015401
13:00+22ююз5758100 0.2 1014826
16:00+21ююз4761100 0.2 1013590
19:00+18ююв3775100 0.8 1012159
22:00+17ююв31176100 1.1 1011221
3 октября, пн
пн301:00+16ююв51472100 0.0 1010315
04:00+16ююв61466100 0.0 1009335
07:00+14ююв71763100 0.0 1009479
10:00+16ююв91855100 0.0 1010865
13:00+18ююв111946100 0.0 10101272
16:00+19ююв111943100 0.0 10111593
19:00+18ююв111845100 0.0 10121280
22:00+16ююв101750100 0.3 10131089
4 октября, вт
вт401:00+12ююв91576100 2.1 1014899
04:00+11ююв61384100 9.6 1015659
07:00+10ююв61094100 4.4 1016424
10:00+11ююв4695100 7.2 1018295
13:00+12ююв4491100 0.9 1020398
16:00+12юв5690100 1.0 1021411
19:00+10юв5892100 0.1 1022431
22:00+10ююв479365 0.1 1023313